Wind_Speed
48 49 47 51 63 60 53 32 4 27 32 8 4 4 5 5 5 5 4 5 4 5 4 3 3 5 4 7 7 2 3 4 2 5 1 5 3 4 5 4 6 1 4 5
47 46 48 51 65 64 49 18 12 27 35 5 2 1 3 3 4 3 3 3 4 3 5 5 4 4 6 8 5 5 5 2 3 5 4 2 3 2 4 5 3 3 4 5
49 49 49 50 71 65 45 16 4 7 13 5 10 6 4 4 3 4 6 6 6 5 3 3 5 3 3 6 4 5 4 3 6 5 6 3 2 1 3 4 3 3 5 7
51 49 50 51 72 66 43 10 5 12 6 5 7 5 6 6 4 4 7 3 4 7 4 3 4 3 3 3 8 2 3 3 3 4 6 3 2 3 4 3 4 5 5 5
51 49 51 47 77 56 32 13 11 9 7 24 9 3 6 6 4 6 3 6 6 5 6 7 8 7 4 4 3 2 2 2 4 1 5 1 4 5 5 4 4 4 4 7
52 51 56 66 70 60 21 18 24 21 9 7 6 6 8 9 14 2 10 17 6 5 7 8 18 15 10 10 7 3 3 3 1 1 3 4 5 6 6 4 3 5 3 9
53 51 53 77 67 49 23 30 28 11 3 6 12 10 7 10 6 8 8 22 7 8 21 23 18 12 9 7 3 6 5 3 1 1 3 3 6 3 4 6 5 7 7 7
55 49 53 72 61 47 23 34 20 10 4 8 9 15 10 19 14 6 10 9 15 31 22 5 4 4 3 4 5 5 4 4 3 3 2 5 4 3 5 5 7 7 8 16
52 49 45 72 54 39 30 25 16 11 17 11 15 15 28 6 5 4 5 17 33 17 5 3 4 4 4 4 4 6 5 5 4 1 1 3 6 3 7 6 4 5 10 16
50 47 51 75 60 37 28 20 17 14 10 18 29 10 20 19 12 5 7 13 9 8 2 2 3 3 4 4 6 5 3 2 5 2 2 7 6 5 11 4 6 8 12 15
46 47 50 66 57 36 27 21 16 14 9 22 16 19 30 23 21 7 19 8 2 3 3 3 3 3 5 2 4 5 6 5 3 3 2 7 10 7 5 9 7 11 12 14
48 47 50 61 44 33 28 24 19 14 10 12 14 12 31 33 31 24 26 9 16 10 4 1 3 2 2 4 3 1 3 6 5 8 6 7 23 13 12 15 14 15 13 9
46 51 45 60 46 36 33 26 22 16 19 17 12 16 24 19 21 26 14 6 18 9 6 9 3 3 4 3 4 3 3 7 3 3 6 18 16 19 18 20 21 16 10 9
47 44 54 64 51 35 26 26 19 16 13 6 4 15 19 22 20 23 6 15 19 14 10 3 2 2 7 4 3 4 5 11 6 4 8 9 13 14 16 17 12 10 11 10
45 39 52 52 45 36 25 22 19 18 7 6 8 18 20 22 20 18 10 11 18 15 5 2 3 4 4 1 1 4 12 7 5 6 13 9 7 10 13 13 14 13 12 9
45 44 39 44 38 35 36 14 16 15 15 12 3 5 8 23 21 17 12 14 17 9 5 3 4 5 5 3 3 8 21 23 25 13 11 12 12 13 9 13 15 13 13 11
41 43 47 41 41 37 22 10 22 19 17 8 5 4 6 17 18 14 14 15 8 5 5 4 4 5 6 2 4 7 17 18 20 16 10 8 9 10 11 14 15 14 13 11
46 53 48 43 37 26 21 23 26 22 9 7 3 1 7 16 6 6 7 5 5 3 3 3 4 5 4 4 15 14 14 13 17 23 12 11 12 13 12 16 15 16 15 12
52 49 43 37 25 14 25 26 20 13 3 8 4 5 4 11 6 6 4 3 2 2 3 4 7 3 5 10 16 16 17 13 17 22 18 17 14 14 15 16 18 17 15 11
56 48 19 9 17 32 25 12 7 2 1 4 4 8 3 14 6 3 5 2 2 1 4 5 4 4 23 21 19 13 17 15 15 20 15 13 13 14 17 19 18 16 11 9
39 8 7 34 37 21 5 8 8 5 1 7 7 8 5 8 5 4 3 3 3 1 4 4 3 3 10 23 33 22 20 18 21 15 10 8 8 11 18 19 18 14 12 9
17 26 38 32 10 5 4 2 2 4 6 12 13 14 13 9 9 5 7 3 2 5 7 1 4 4 13 6 12 27 23 22 22 18 13 11 12 12 11 15 15 13 10 9
55 22 7 8 4 4 8 7 4 2 10 11 15 11 9 8 5 5 3 3 5 7 1 4 5 4 5 9 9 18 27 21 19 15 13 11 11 12 12 14 11 9 8 8
6 8 4 4 3 5 5 4 5 8 14 33 33 12 6 6 4 4 4 3 5 1 3 6 4 12 9 10 11 20 26 20 15 12 11 13 13 13 12 10 8 6 6 7
5 5 5 5 4 3 8 9 12 13 36 39 18 9 6 3 4 3 3 3 4 6 5 3 5 9 15 17 18 19 20 17 13 13 14 12 11 10 9 9 10 11 10 11
3 3 5 4 5 3 9 13 13 29 38 32 7 5 4 3 4 4 7 6 7 4 4 7 5 15 22 21 18 16 15 15 13 12 11 11 11 10 10 12 14 13 12 13
3 2 3 7 2 9 10 17 23 38 39 4 6 5 6 5 2 3 4 5 4 6 6 8 8 17 24 20 17 16 15 14 12 11 10 9 10 11 13 14 13 12 13 14
Wind_Direction
180 187 189 193 177 174 172 151 104 159 158 123 98 146 182 147 133 108 99 99 107 134 141 116 141 174 163 160 153 87 158 149 89 229 120 159 129 165 125 105 287 116 147 278
182 186 190 188 178 175 160 123 103 158 164 134 151 217 136 130 128 136 125 113 118 120 135 105 129 133 145 145 148 163 185 5 32 355 19 32 76 159 107 106 80 216 117 266
185 187 187 187 174 174 159 126 112 142 176 135 134 139 151 117 112 119 111 110 93 104 89 61 148 141 149 152 133 137 135 84 146 184 214 173 331 97 116 113 102 190 225 289
189 187 187 188 178 174 165 143 140 156 182 200 143 127 140 129 144 124 131 74 146 141 121 109 123 141 101 124 149 117 105 133 178 250 261 196 217 227 164 129 190 157 251 221
191 191 189 189 172 165 170 128 136 123 82 144 116 107 196 144 144 134 176 140 148 135 149 173 178 140 143 179 163 133 56 168 189 66 41 36 260 241 211 191 177 268 245 278
188 189 184 191 170 171 158 132 139 151 130 124 127 191 173 177 127 62 183 149 120 118 171 166 147 150 162 154 148 149 113 125 100 44 358 320 348 239 193 192 185 169 211 239
186 185 179 183 172 167 162 156 144 118 150 165 184 153 145 148 123 129 149 157 118 132 126 113 106 100 108 130 151 142 130 117 82 112 337 18 241 177 216 198 234 214 263 261
187 181 176 184 171 170 181 156 151 127 111 150 134 153 128 122 120 95 142 156 150 137 119 75 77 0 43 234 211 189 155 118 93 120 198 280 309 203 181 173 275 228 226 257
182 180 179 175 173 170 174 161 157 123 119 215 162 142 151 137 120 70 116 140 147 149 88 82 144 177 181 189 137 82 83 71 114 121 65 252 234 236 188 123 304 253 231 251
182 180 178 180 172 168 165 144 147 152 103 152 163 156 164 150 123 107 126 147 148 157 84 99 156 209 175 167 174 170 123 67 157 132 206 284 238 162 143 87 240 217 230 253
180 179 180 182 180 171 172 148 158 161 100 154 170 169 161 150 146 145 153 110 200 72 86 129 208 140 217 136 185 176 159 151 182 96 100 285 178 127 175 221 259 257 267 273
177 179 179 181 166 157 164 151 149 144 117 153 174 178 185 180 177 153 163 160 159 165 98 136 121 137 83 161 224 34 181 182 176 176 211 223 183 208 241 247 273 275 285 291
174 182 184 170 156 157 173 156 149 155 104 109 137 160 181 177 201 193 152 134 174 172 153 160 173 147 132 160 242 184 236 177 189 104 227 229 227 235 251 261 275 283 269 285
173 179 183 175 170 166 154 146 152 157 107 99 84 159 165 182 185 190 199 185 173 162 161 152 144 152 192 192 209 188 197 154 185 251 266 255 252 249 259 271 266 239 248 271
173 175 180 178 179 179 159 154 150 155 124 132 120 147 156 166 176 190 192 186 178 166 154 125 190 152 139 97 357 238 190 182 172 217 201 207 232 273 280 247 239 231 249 246
174 175 176 159 156 159 157 124 152 163 135 111 101 97 153 168 177 187 176 188 175 168 158 172 196 176 171 161 231 249 215 217 230 222 239 246 264 252 243 237 221 236 234 242
171 170 159 156 159 159 160 132 161 162 146 104 97 93 129 157 161 146 152 167 154 148 167 197 183 177 188 184 231 238 220 224 229 216 204 228 242 235 234 223 223 225 224 231
164 160 158 157 159 137 116 133 149 158 136 115 107 92 146 163 132 117 137 135 135 136 179 184 204 163 209 253 239 243 220 216 214 205 224 256 253 235 215 214 223 217 226 227
155 153 152 147 129 115 132 136 141 143 148 118 121 138 189 164 113 111 111 126 77 210 202 232 182 198 221 231 231 225 216 210 219 228 238 233 228 228 217 210 211 225 225 224
151 146 126 95 119 131 127 126 154 234 259 122 107 132 144 166 134 103 123 134 143 186 237 181 207 250 241 241 233 227 207 200 187 174 179 191 202 212 219 222 227 231 229 235
142 108 97 128 131 124 107 138 173 213 192 172 135 151 128 161 118 122 164 169 157 174 244 183 245 266 245 245 233 217 199 196 189 196 199 214 231 227 217 218 220 215 225 252
126 127 128 123 115 134 127 178 156 196 205 166 146 150 134 135 136 127 180 149 135 239 154 143 263 248 244 225 216 204 197 194 194 204 216 232 235 229 228 218 212 220 238 243
121 109 137 162 148 70 167 191 224 193 158 155 147 132 133 134 145 104 137 127 211 129 110 233 232 249 228 210 201 193 197 196 197 202 218 237 225 203 197 199 206 217 237 255
107 140 128 168 200 220 187 175 161 160 158 149 150 130 129 126 115 150 125 188 123 212 239 235 245 238 214 187 181 177 182 187 199 223 214 191 190 191 194 204 207 229 254 271
113 134 169 191 175 146 163 147 135 149 148 148 128 85 103 95 108 203 124 133 233 213 230 226 254 193 177 161 158 168 181 192 194 187 186 188 193 202 211 220 232 247 258 271
101 112 105 120 125 123 150 161 151 150 154 148 129 119 101 182 152 151 202 174 218 242 216 231 210 176 172 167 168 171 174 175 177 185 191 196 208 225 242 244 250 257 266 278
84 94 139 165 126 175 161 167 165 161 161 151 129 110 184 118 133 216 190 207 217 214 224 193 179 179 173 171 170 172 176 180 183 188 197 211 224 234 242 249 256 262 270 276
Height
1393 1405 1414 1424 1438 1453 1469 1479 1495 1504 1510 1521 1528 1536 1533 1534 1535 1538 1542 1546 1552 1559 1565 1570 1573 1574 1574 1575 1577 1581 1584 1598 1597 1595 1587 1588 1593 1608 1617 1620 1623 1651 1642 1617
1388 1399 1410 1422 1430 1445 1461 1475 1494 1503 1507 1524 1530 1532 1531 1533 1535 1538 1542 1546 1548 1555 1562 1574 1571 1573 1573 1574 1576 1581 1582 1599 1617 1594 1593 1591 1593 1595 1605 1619 1630 1643 1631 1609
1385 1397 1408 1420 1425 1442 1456 1470 1497 1505 1510 1512 1516 1526 1531 1534 1534 1537 1540 1545 1548 1555 1561 1565 1571 1573 1573 1574 1576 1578 1579 1595 1605 1615 1600 1595 1600 1593 1599 1606 1630 1639 1624 1606
1382 1394 1406 1418 1427 1439 1453 1463 1481 1487 1506 1510 1513 1518 1526 1532 1536 1537 1538 1545 1547 1552 1568 1565 1568 1570 1572 1575 1576 1577 1578 1595 1593 1588 1587 1588 1590 1588 1596 1608 1608 1612 1609 1612
1381 1394 1405 1413 1422 1436 1446 1455 1469 1485 1493 1503 1513 1517 1526 1527 1532 1534 1539 1543 1549 1550 1559 1558 1566 1567 1571 1573 1576 1577 1579 1589 1590 1587 1586 1585 1586 1585 1588 1591 1600 1607 1602 1599
1379 1392 1400 1414 1421 1432 1440 1449 1461 1473 1497 1505 1510 1516 1519 1522 1523 1533 1535 1539 1547 1551 1552 1553 1557 1562 1566 1567 1574 1578 1579 1586 1590 1587 1588 1590 1598 1589 1582 1584 1587 1586 1592 1581
1379 1390 1401 1413 1420 1433 1443 1451 1459 1469 1499 1500 1500 1510 1513 1517 1523 1531 1538 1540 1543 1550 1551 1557 1561 1566 1568 1569 1573 1574 1581 1584 1589 1595 1587 1618 1582 1576 1577 1578 1576 1577 1575 1571
1377 1390 1403 1414 1421 1433 1450 1453 1459 1464 1493 1498 1504 1508 1511 1519 1525 1532 1537 1542 1543 1548 1552 1563 1569 1576 1571 1572 1572 1573 1574 1582 1593 1606 1597 1581 1573 1574 1577 1577 1575 1567 1568 1565
1377 1391 1403 1415 1424 1441 1448 1453 1457 1461 1475 1493 1496 1502 1507 1517 1526 1535 1539 1542 1545 1548 1554 1563 1569 1574 1567 1573 1573 1573 1576 1578 1591 1599 1594 1600 1576 1568 1569 1571 1585 1563 1563 1561
1381 1393 1404 1416 1427 1440 1447 1453 1459 1465 1473 1486 1491 1497 1503 1513 1521 1533 1539 1543 1547 1548 1558 1569 1570 1570 1565 1572 1569 1572 1579 1586 1598 1623 1612 1583 1565 1566 1568 1584 1578 1559 1559 1557
1383 1395 1406 1418 1430 1441 1446 1455 1463 1468 1476 1489 1492 1495 1500 1507 1514 1524 1535 1544 1548 1551 1563 1568 1568 1570 1566 1567 1562 1564 1569 1583 1596 1602 1617 1595 1560 1566 1568 1562 1556 1556 1555 1555
1385 1396 1408 1422 1433 1442 1450 1461 1465 1470 1476 1487 1491 1496 1500 1504 1511 1518 1526 1530 1536 1541 1552 1561 1562 1563 1569 1564 1574 1559 1567 1561 1571 1572 1572 1553 1553 1551 1553 1553 1553 1552 1553 1553
1387 1399 1409 1423 1432 1446 1456 1458 1464 1473 1480 1491 1496 1499 1505 1509 1516 1518 1522 1531 1533 1535 1538 1544 1549 1550 1555 1565 1562 1554 1552 1551 1558 1558 1547 1547 1548 1549 1550 1550 1549 1550 1550 1550
1391 1401 1411 1422 1434 1445 1453 1459 1467 1472 1479 1491 1501 1501 1506 1511 1516 1519 1521 1524 1531 1534 1538 1540 1543 1546 1546 1551 1549 1549 1546 1547 1548 1548 1543 1543 1543 1543 1544 1545 1545 1546 1547 1547
1395 1403 1415 1426 1437 1447 1455 1463 1470 1473 1481 1492 1501 1504 1507 1511 1516 1520 1523 1526 1529 1533 1537 1539 1542 1541 1544 1546 1548 1544 1534 1533 1541 1539 1532 1534 1536 1538 1539 1540 1541 1543 1544 1545
1399 1410 1420 1430 1440 1449 1457 1467 1473 1478 1483 1491 1503 1509 1510 1512 1517 1520 1523 1526 1529 1532 1534 1536 1537 1537 1539 1546 1545 1523 1521 1521 1523 1525 1528 1530 1532 1532 1534 1536 1538 1540 1541 1542
1402 1414 1425 1435 1445 1450 1457 1464 1471 1479 1484 1489 1503 1509 1513 1514 1517 1521 1524 1527 1529 1531 1534 1535 1535 1535 1536 1539 1534 1515 1516 1517 1520 1523 1524 1526 1527 1528 1530 1532 1535 1537 1539 1540
1406 1418 1428 1437 1444 1451 1459 1468 1475 1481 1483 1489 1501 1510 1513 1514 1516 1521 1525 1527 1529 1531 1533 1534 1534 1534 1534 1530 1510 1510 1512 1514 1515 1518 1520 1523 1524 1525 1527 1529 1531 1534 1536 1538
1409 1421 1429 1438 1449 1459 1468 1472 1478 1480 1486 1487 1496 1504 1512 1512 1516 1520 1525 1527 1531 1533 1532 1532 1532 1528 1524 1504 1503 1505 1507 1508 1510 1514 1517 1520 1521 1522 1524 1526 1529 1531 1533 1535
1411 1422 1435 1449 1456 1465 1470 1479 1483 1485 1485 1486 1491 1496 1503 1508 1512 1521 1525 1526 1530 1535 1528 1528 1526 1511 1499 1496 1498 1500 1503 1505 1507 1510 1514 1517 1519 1520 1522 1523 1526 1529 1531 1533
1414 1426 1439 1451 1461 1468 1473 1482 1487 1484 1484 1483 1487 1492 1498 1506 1510 1518 1522 1526 1528 1534 1524 1526 1515 1504 1486 1486 1490 1496 1499 1503 1505 1508 1511 1514 1516 1518 1520 1522 1525 1527 1529 1530
1415 1423 1444 1454 1462 1468 1473 1478 1479 1478 1475 1477 1481 1489 1495 1502 1509 1513 1520 1522 1526 1523 1521 1525 1513 1486 1480 1481 1482 1487 1495 1500 1504 1507 1510 1512 1514 1516 1518 1520 1523 1526 1527 1528
1424 1435 1447 1451 1460 1470 1468 1477 1470 1471 1466 1471 1476 1485 1493 1503 1506 1510 1515 1521 1524 1518 1525 1512 1492 1477 1478 1479 1481 1484 1492 1497 1501 1505 1507 1509 1511 1514 1517 1520 1522 1524 1525 1526
1422 1431 1444 1445 1456 1449 1446 1447 1449 1453 1457 1463 1473 1479 1486 1494 1501 1507 1512 1511 1513 1521 1523 1495 1475 1472 1475 1477 1479 1483 1489 1495 1499 1502 1504 1507 1510 1513 1516 1518 1520 1521 1522 1522
1420 1425 1435 1439 1435 1437 1439 1442 1445 1450 1456 1462 1471 1478 1483 1491 1500 1502 1505 1510 1512 1502 1490 1477 1468 1470 1474 1477 1480 1485 1490 1494 1498 1501 1504 1506 1509 1512 1514 1516 1517 1518 1519 1519
1422 1425 1430 1432 1434 1437 1438 1441 1445 1449 1457 1463 1467 1475 1484 1489 1490 1494 1496 1495 1494 1479 1469 1466 1468 1470 1473 1477 1481 1486 1490 1493 1497 1500 1503 1506 1508 1510 1512 1513 1514 1515 1515 1515
1422 1425 1427 1428 1429 1431 1435 1439 1443 1449 1453 1457 1461 1474 1477 1482 1487 1488 1481 1480 1468 1462 1463 1464 1466 1469 1474 1479 1483 1487 1490 1493 1496 1499 1502 1504 1506 1507 1508 1509 1510 1511 1511 1510